TimeCST,TemperatureF,Dew PointF,Humidity,Sea Level PressureIn,VisibilityMPH,Wind Direction,Wind SpeedMPH,Gust SpeedMPH,PrecipitationIn,Events,Conditions,WindDirDegrees,DateUTC
12:02 AM,12.2,10.4,92,29.89,7.0,South,5.8,-,N/A,,Overcast,180,2013-01-02 06:02:00
12:22 AM,12.2,12.2,100,29.89,7.0,South,3.5,-,N/A,,Overcast,170,2013-01-02 06:22:00
12:42 AM,12.2,12.2,100,29.88,7.0,Calm,Calm,-,N/A,,Overcast,0,2013-01-02 06:42:00
1:02 AM,12.2,12.2,100,29.87,7.0,SSE,3.5,-,N/A,,Overcast,160,2013-01-02 07:02:00
1:22 AM,14.0,12.2,93,29.88,7.0,Calm,Calm,-,N/A,,Overcast,0,2013-01-02 07:22:00
1:42 AM,14.0,12.2,93,29.88,5.0,Calm,Calm,-,N/A,,Overcast,0,2013-01-02 07:42:00
2:02 AM,14.0,12.2,93,29.88,5.0,Calm,Calm,-,N/A,,Overcast,0,2013-01-02 08:02:00
2:22 AM,14.0,12.2,93,29.88,5.0,Calm,Calm,-,N/A,,Overcast,0,2013-01-02 08:22:00
2:42 AM,14.0,12.2,93,29.87,5.0,SSE,3.5,-,N/A,,Overcast,150,2013-01-02 08:42:00
3:02 AM,14.0,12.2,93,29.87,5.0,Calm,Calm,-,N/A,,Overcast,0,2013-01-02 09:02:00
3:22 AM,15.8,12.2,86,29.86,5.0,Calm,Calm,-,N/A,,Overcast,0,2013-01-02 09:22:00
3:42 AM,15.8,12.2,86,29.86,5.0,Calm,Calm,-,N/A,,Overcast,0,2013-01-02 09:42:00
4:02 AM,15.8,12.2,86,29.86,5.0,Calm,Calm,-,N/A,,Overcast,0,2013-01-02 10:02:00
4:22 AM,15.8,14.0,93,29.86,5.0,Calm,Calm,-,N/A,,Overcast,0,2013-01-02 10:22:00
4:42 AM,15.8,14.0,93,29.87,7.0,Calm,Calm,-,N/A,,Overcast,0,2013-01-02 10:42:00
5:02 AM,15.8,14.0,93,29.86,7.0,Calm,Calm,-,N/A,,Overcast,0,2013-01-02 11:02:00
5:22 AM,15.8,14.0,93,29.86,7.0,Calm,Calm,-,N/A,,Overcast,0,2013-01-02 11:22:00
5:42 AM,15.8,15.8,100,29.86,7.0,Calm,Calm,-,N/A,,Overcast,0,2013-01-02 11:42:00
6:02 AM,15.8,15.8,100,29.86,7.0,Calm,Calm,-,N/A,,Overcast,0,2013-01-02 12:02:00
6:22 AM,15.8,15.8,100,29.86,7.0,SSE,3.5,-,N/A,,Overcast,160,2013-01-02 12:22:00
6:42 AM,17.6,15.8,93,29.86,7.0,SSE,5.8,-,N/A,,Overcast,160,2013-01-02 12:42:00
7:02 AM,17.6,15.8,93,29.86,7.0,SSE,5.8,-,N/A,,Overcast,160,2013-01-02 13:02:00
7:22 AM,17.6,15.8,93,29.86,7.0,SSE,3.5,-,N/A,,Overcast,160,2013-01-02 13:22:00
7:42 AM,17.6,15.8,93,29.86,7.0,SSE,3.5,-,N/A,,Overcast,160,2013-01-02 13:42:00
8:02 AM,17.6,15.8,93,29.86,7.0,SSE,5.8,-,N/A,,Overcast,150,2013-01-02 14:02:00
8:22 AM,17.6,15.8,93,29.86,7.0,SSE,4.6,-,N/A,,Overcast,160,2013-01-02 14:22:00
9:02 AM,17.6,15.8,93,29.88,3.0,Calm,Calm,-,N/A,Snow,Light Snow,0,2013-01-02 15:02:00
9:22 AM,17.6,15.8,93,29.88,5.0,SSE,3.5,-,N/A,,Overcast,150,2013-01-02 15:22:00
9:42 AM,19.4,17.6,93,29.89,7.0,Calm,Calm,-,N/A,,Overcast,0,2013-01-02 15:42:00
10:02 AM,19.4,17.6,93,29.89,7.0,SSE,4.6,-,N/A,Snow,Light Snow,150,2013-01-02 16:02:00
10:22 AM,19.4,17.6,93,29.89,7.0,SSE,5.8,-,N/A,,Overcast,150,2013-01-02 16:22:00
10:42 AM,19.4,17.6,93,29.89,7.0,SE,3.5,-,N/A,,Overcast,140,2013-01-02 16:42:00
11:02 AM,19.4,17.6,93,29.90,7.0,SSE,4.6,-,N/A,,Overcast,160,2013-01-02 17:02:00
11:22 AM,19.4,17.6,93,29.90,7.0,SSE,5.8,-,N/A,,Overcast,150,2013-01-02 17:22:00
11:42 AM,19.4,17.6,93,29.90,5.0,SSE,3.5,-,N/A,,Overcast,160,2013-01-02 17:42:00
12:02 PM,19.4,17.6,93,29.90,4.0,South,3.5,-,N/A,Snow,Light Snow,180,2013-01-02 18:02:00
12:22 PM,19.4,17.6,93,29.89,1.8,SSE,3.5,-,N/A,Snow,Light Snow,150,2013-01-02 18:22:00
12:42 PM,19.4,17.6,93,29.89,2.0,SSE,3.5,-,N/A,Snow,Light Snow,160,2013-01-02 18:42:00
1:02 PM,19.4,17.6,93,29.89,2.0,SSE,3.5,-,N/A,Snow,Light Snow,160,2013-01-02 19:02:00
1:22 PM,19.4,17.6,93,29.89,2.0,Calm,Calm,-,N/A,Snow,Light Snow,0,2013-01-02 19:22:00
1:42 PM,21.2,19.4,93,29.89,1.8,Calm,Calm,-,N/A,Snow,Light Snow,0,2013-01-02 19:42:00
2:02 PM,21.2,19.4,93,29.89,1.8,Calm,Calm,-,N/A,Snow,Light Snow,0,2013-01-02 20:02:00
2:22 PM,21.2,19.4,93,29.89,2.0,Calm,Calm,-,N/A,Snow,Light Snow,0,2013-01-02 20:22:00
2:42 PM,21.2,19.4,93,29.90,2.0,Calm,Calm,-,N/A,Snow,Light Snow,0,2013-01-02 20:42:00
3:02 PM,21.2,19.4,93,29.90,3.0,Calm,Calm,-,N/A,Snow,Light Snow,0,2013-01-02 21:02:00
3:22 PM,21.2,19.4,93,29.90,7.0,Calm,Calm,-,N/A,Snow,Light Snow,0,2013-01-02 21:22:00
3:42 PM,21.2,17.6,86,29.92,7.0,Calm,Calm,-,N/A,,Overcast,0,2013-01-02 21:42:00
4:02 PM,19.4,17.6,93,29.91,7.0,Calm,Calm,-,N/A,Snow,Light Snow,0,2013-01-02 22:02:00
4:22 PM,19.4,17.6,93,29.93,7.0,Calm,Calm,-,N/A,,Overcast,0,2013-01-02 22:22:00
4:42 PM,19.4,17.6,93,29.93,7.0,Calm,Calm,-,N/A,,Overcast,0,2013-01-02 22:42:00
5:02 PM,19.4,17.6,93,29.93,5.0,Calm,Calm,-,N/A,Snow,Light Snow,0,2013-01-02 23:02:00
5:22 PM,19.4,17.6,93,29.95,4.0,Calm,Calm,-,N/A,Snow,Light Snow,0,2013-01-02 23:22:00
5:42 PM,19.4,17.6,93,29.95,5.0,Calm,Calm,-,N/A,Snow,Light Snow,0,2013-01-02 23:42:00
6:02 PM,19.4,17.6,93,29.96,4.0,Calm,Calm,-,N/A,Snow,Light Snow,0,2013-01-03 00:02:00
6:22 PM,19.4,17.6,93,29.95,4.0,Calm,Calm,-,N/A,Snow,Light Snow,0,2013-01-03 00:22:00
6:42 PM,19.4,17.6,93,29.96,4.0,Calm,Calm,-,N/A,Snow,Light Snow,0,2013-01-03 00:42:00
7:02 PM,19.4,17.6,93,29.97,5.0,Calm,Calm,-,N/A,Snow,Light Snow,0,2013-01-03 01:02:00
7:22 PM,19.4,17.6,93,29.97,4.0,Calm,Calm,-,N/A,Snow,Light Snow,0,2013-01-03 01:22:00
7:42 PM,19.4,17.6,93,29.97,5.0,Calm,Calm,-,N/A,Snow,Light Snow,0,2013-01-03 01:42:00
8:02 PM,19.4,17.6,93,29.97,4.0,Calm,Calm,-,N/A,Snow,Light Snow,0,2013-01-03 02:02:00
8:22 PM,19.4,17.6,93,29.97,2.5,Calm,Calm,-,N/A,Snow,Light Snow,0,2013-01-03 02:22:00
8:42 PM,19.4,17.6,93,29.98,7.0,NW,3.5,-,N/A,Snow,Light Snow,310,2013-01-03 02:42:00
9:02 PM,19.4,19.4,100,29.98,7.0,NW,4.6,-,N/A,,Overcast,320,2013-01-03 03:02:00
9:22 PM,19.4,19.4,100,29.99,10.0,NW,4.6,-,N/A,,Overcast,320,2013-01-03 03:22:00
9:42 PM,19.4,19.4,100,29.99,10.0,NW,5.8,-,N/A,,Overcast,320,2013-01-03 03:42:00
10:02 PM,19.4,17.6,93,29.99,10.0,NW,9.2,-,N/A,,Overcast,320,2013-01-03 04:02:00
10:22 PM,19.4,17.6,93,30.01,7.0,NW,5.8,-,N/A,Snow,Light Snow,320,2013-01-03 04:22:00
10:42 PM,19.4,17.6,93,30.01,7.0,NNW,6.9,-,N/A,Snow,Light Snow,330,2013-01-03 04:42:00
11:02 PM,19.4,17.6,93,30.02,7.0,NNW,8.1,-,N/A,Snow,Light Snow,340,2013-01-03 05:02:00
11:22 PM,17.6,15.8,93,30.03,7.0,NNW,5.8,-,N/A,Snow,Light Snow,340,2013-01-03 05:22:00
11:42 PM,17.6,15.8,93,30.03,10.0,North,8.1,-,N/A,Snow,Light Snow,350,2013-01-03 05:42:00